Regional Weather Roundup
Issued by NWS

Home | Current Version | Previous Version | Graphics & Text | Print | Product List | Glossary On
Versions: 1 2 3 4 5 6 7 8 9 10 11 12 13 14 15 16 17 18 19 20 21 22 23 24 25 26 27 28 29 30 31 32 33 34 35 36 37 38 39 40 41 42 43 44 45 46 47 48 49 50
558
ASUS45 KSLC 220510
RWRUT

UTAH REGIONAL WEATHER ROUNDUP
NATIONAL WEATHER SERVICE SALT LAKE CITY UT
1000 PM MST SAT JAN 21 2017

UTZ001>011-023>025-220600-

NORTHERN UTAH

CITY           SKY/WX    TMP DP  RH WIND       PRES   REMARKS
BRIGHAM CITY     N/A     34  25  71 CALM      29.91R
HILL AFB       CLOUDY    29  25  83 SE7       29.89R WCI  22
LOGAN          FLURRIES  31  30  96 CALM      29.89R
OGDEN          CLOUDY    30  26  85 S8        29.89R WCI  22
SALT LAKE CITY CLOUDY    32  28  85 SE6       29.91R WCI  26
TOOELE VALLEY  MOCLDY    30  25  80 S5        29.91R WCI  25
WENDOVER       PTCLDY    27  19  74 N3        29.89R
HEBER CITY     CLOUDY    25  19  80 SE3       29.89R
WEST JORDAN    CLOUDY    29  28  98 S5        29.92R WCI  24

$$

UTZ011>015-024>027-220600-

CENTRAL/NORTHEAST UTAH

CITY           SKY/WX    TMP DP  RH WIND       PRES   REMARKS
PROVO AIRPORT  PTCLDY    27  25  93 CALM      29.94R FOG
MOAB/CANYONLAN CLEAR     36  25  64 W10       29.87R WCI  28
DELTA          CLEAR     19  18  93 CALM      29.93R
PRICE          CLEAR     17  12  80 NE5       29.86R WCI  10
RICHFIELD      CLEAR     23  23 100 E3        29.97R
ROOSEVELT      CLOUDY    19  18  93 CALM      29.88R FOG
VERNAL         CLOUDY    26  23  88 SW3       29.85R FOG

$$

UTZ013>016-019>022-027-220600-

SOUTHERN UTAH

CITY           SKY/WX    TMP DP  RH WIND       PRES   REMARKS
BRYCE CANYON   PTCLDY     3   0  87 W8        29.95R WCI -10
CEDAR CITY     CLEAR     25  17  72 SE9       29.95R WCI  15
MILFORD        CLEAR     27  22  81 SW13      29.93R WCI  16
ST GEORGE      MOCLDY    39  28  65 SE7       30.02R WCI  34
HANKSVILLE     CLEAR     36  21  55 MISG      29.93R
KANAB          PTCLDY    27  25  93 CALM      30.05R
BLANDING       PTCLDY    22  18  84 SW5       29.95R WCI  16

$$

REGIONAL REPORTS     COLORADO/ARIZONA

CITY           SKY/WX    TMP DP  RH WIND       PRES   REMARKS
CRAIG, CO      LGT SNOW  27  23  85 SW12      29.81R FOG     WCI  17
GRAND JUNCTION CLOUDY    34  28  79 W7        29.85R WCI  28
RIFLE, CO      CLOUDY    34  25  69 W7        29.82R WCI  28
MONTROSE, CO   CLOUDY    30  29  96 NW17      29.86R WCI  18
CORTEZ, CO     CLOUDY    29  28  96 W8        29.87R WCI  21
COLORADO CITY    N/A     27  27 100 E3        30.03R
PAGE, AZ       CLEAR     38  22  52 NW3       29.97R
GRAND CANYON   PTCLDY    12  10  92 CALM      30.01R
KINGMAN, AZ    CLEAR     36  24  62 S10       30.02R WCI  28
FLAGSTAFF, AZ  PTCLDY    22  21  96 SW8       30.01R WCI  12

$$

REGIONAL REPORTS    NEVADA/IDAHO/WYOMING

CITY           SKY/WX    TMP DP  RH WIND       PRES   REMARKS
LAS VEGAS, NV  PTCLDY    47  31  53 S6        29.98R
ELY, NY        PTCLDY    10   6  84 VRB3      29.90R
ELKO, NV       CLOUDY    29  19  66 W7        29.85R WCI  22
POCATELLO, ID  CLEAR     31  23  72 S13       29.83R WCI  21
BURLEY, ID     CLOUDY    35  25  66 S16       29.82R WCI  25
FORT BRIDGER,  MOCLDY    23  22  99 W17       29.84R WCI   9
EVANSTON, WY   CLOUDY    19  15  84 W21       29.83R WCI   3
ROCK SPRINGS,  CLOUDY    22  17  81 W18       29.78R WCI   7

$$




USA.gov is the U.S. government's official web portal to all federal, state and local government web resources and services.